{"data":{"norad_id":54207,"epoch":"2026-09-20T11:16:08.358816Z","epoch_age_seconds":92432,"freshness":"FRESH","line1":"1 54207U 22141BC  26263.46954119 -.00002362  00000+0 -60540-4 0  9999","line2":"2 54207  53.1603 189.8985 0001229  78.6787 281.4354 15.33540433215537","mean_motion":15.33540433,"eccentricity":0.0001229,"inclination_deg":53.1603,"raan_deg":189.8985,"arg_perigee_deg":78.6787,"mean_anomaly_deg":281.4354,"bstar":-6.054e-5,"rev_number":21553,"period_min":93.900360826026,"perigee_km":464.41819433906,"apogee_km":466.10030113676,"semimajor_km":6843.3962477379,"source":"CELESTRAK","updated_at":"2026-09-21T09:00:33.118473Z"}}